| time (UTC) | temp F | wind direction | speed MPH | gust MPH | rain 1hr in | rain 24hr in | rain mn in | humidity % | barometer mb |
| 20260505153227 | 76 | 202 | 6.0 | 9.0 | 0.00 | 0.00 | 0.00 | 82 | 1010.5 |
| 20260505152724 | 76 | 191 | 4.0 | 7.0 | 0.00 | 0.00 | 0.00 | 82 | 1010.5 |
| 20260505152220 | 76 | 188 | 1.0 | 4.0 | 0.00 | 0.00 | 0.00 | 83 | 1010.5 |
| 20260505151715 | 76 | 178 | 4.0 | 9.0 | 0.00 | 0.00 | 0.00 | 82 | 1010.5 |
| 20260505151213 | 76 | 170 | 6.0 | 10.0 | 0.00 | 0.00 | 0.00 | 82 | 1010.5 |
| 20260505150709 | 76 | 167 | 2.0 | 6.0 | 0.00 | 0.00 | 0.00 | 83 | 1010.5 |
| 20260505150206 | 76 | 144 | 3.0 | 4.0 | 0.00 | 0.00 | 0.00 | 84 | 1010.5 |
| 20260505140639 | 74 | 168 | 5.0 | 7.0 | 0.00 | 0.00 | 0.00 | 86 | 1010.2 |
| 20260505140136 | 74 | 133 | 1.0 | 2.0 | 0.00 | 0.00 | 0.00 | 86 | 1010.5 |
| 20260505124549 | 72 | 142 | 3.0 | 5.0 | 0.00 | 0.00 | 0.00 | 88 | 1010.5 |
| 20260505124046 | 71 | 165 | 4.0 | 7.0 | 0.00 | 0.00 | 0.00 | 88 | 1010.2 |
| 20260505123542 | 71 | 191 | 3.0 | 5.0 | 0.00 | 0.00 | 0.00 | 88 | 1009.8 |
| 20260505123038 | 71 | 110 | 2.0 | 3.0 | 0.00 | 0.00 | 0.00 | 89 | 1009.8 |
| 20260505122536 | 71 | 190 | 4.0 | 4.0 | 0.00 | 0.00 | 0.00 | 89 | 1009.8 |
| 20260505122032 | 71 | 182 | 3.0 | 5.0 | 0.00 | 0.00 | 0.00 | 89 | 1009.8 |
| 20260505121529 | 71 | 182 | 6.0 | 10.0 | 0.00 | 0.00 | 0.00 | 89 | 1009.8 |
| 20260505121026 | 71 | 164 | 2.0 | 5.0 | 0.00 | 0.00 | 0.00 | 89 | 1010.2 |
| 20260505120522 | 71 | 127 | 1.0 | 3.0 | 0.00 | 0.00 | 0.00 | 89 | 1009.8 |
| 20260505120017 | 71 | 176 | 3.0 | 4.0 | 0.00 | 0.00 | 0.00 | 89 | 1009.8 |
| 20260505115512 | 71 | 208 | 3.0 | 7.0 | 0.00 | 0.00 | 0.00 | 89 | 1010.2 |
| 20260505115010 | 71 | 169 | 3.0 | 4.0 | 0.00 | 0.00 | 0.00 | 89 | 1010.2 |
| 20260505114507 | 71 | 213 | 3.0 | 5.0 | 0.00 | 0.00 | 0.00 | 89 | 1009.8 |
| 20260505114003 | 71 | 213 | 3.0 | 5.0 | 0.00 | 0.00 | 0.00 | 88 | 1009.8 |
| 20260505113500 | 71 | 172 | 2.0 | 5.0 | 0.00 | 0.00 | 0.00 | 88 | 1009.8 |
| 20260505112955 | 71 | 185 | 2.0 | 3.0 | 0.00 | 0.00 | 0.00 | 88 | 1009.8 |
| 20260505112453 | 71 | 183 | 5.0 | 6.0 | 0.00 | 0.00 | 0.00 | 88 | 1009.8 |
| 20260505111950 | 71 | 208 | 4.0 | 6.0 | 0.00 | 0.00 | 0.00 | 88 | 1009.8 |
| 20260505111443 | 71 | 184 | 4.0 | 7.0 | 0.00 | 0.00 | 0.00 | 88 | 1009.8 |
| 20260505110940 | 71 | 160 | 1.0 | 3.0 | 0.00 | 0.00 | 0.00 | 88 | 1009.8 |
| 20260505110437 | 71 | 188 | 6.0 | 10.0 | 0.00 | 0.00 | 0.00 | 88 | 1009.8 |
| 20260505101909 | 70 | 188 | 4.0 | 7.0 | 0.00 | 0.00 | 0.00 | 88 | 1009.5 |
| 20260505101408 | 70 | 154 | 4.0 | 11.0 | 0.00 | 0.00 | 0.00 | 88 | 1009.8 |
| 20260505100905 | 70 | 161 | 2.0 | 3.0 | 0.00 | 0.00 | 0.00 | 88 | 1009.8 |
| 20260505100401 | 70 | 180 | 3.0 | 6.0 | 0.00 | 0.00 | 0.00 | 88 | 1009.8 |
| 20260505095857 | 70 | 182 | 3.0 | 4.0 | 0.00 | 0.00 | 0.00 | 88 | 1010.2 |
| 20260505095355 | 70 | 193 | 3.0 | 7.0 | 0.00 | 0.00 | 0.00 | 88 | 1010.2 |
| 20260505094850 | 70 | 165 | 2.0 | 3.0 | 0.00 | 0.00 | 0.00 | 88 | 1010.2 |
| 20260505094348 | 70 | 156 | 2.0 | 2.0 | 0.00 | 0.00 | 0.00 | 88 | 1009.8 |
| 20260505093843 | 70 | 168 | 2.0 | 4.0 | 0.00 | 0.00 | 0.00 | 88 | 1009.8 |
| 20260505093341 | 70 | 165 | 2.0 | 4.0 | 0.00 | 0.00 | 0.00 | 87 | 1009.8 |
| 20260505092838 | 70 | 214 | 2.0 | 3.0 | 0.00 | 0.00 | 0.00 | 88 | 1010.2 |
| 20260505092336 | 70 | 176 | 3.0 | 6.0 | 0.00 | 0.00 | 0.00 | 87 | 1010.2 |
| 20260505091833 | 70 | 156 | 4.0 | 7.0 | 0.00 | 0.00 | 0.00 | 87 | 1010.2 |
| 20260505091331 | 70 | 162 | 3.0 | 4.0 | 0.00 | 0.00 | 0.00 | 87 | 1010.2 |
| 20260505090829 | 70 | 175 | 3.0 | 5.0 | 0.00 | 0.00 | 0.00 | 87 | 1010.2 |
| 20260505090327 | 70 | 146 | 4.0 | 6.0 | 0.00 | 0.00 | 0.00 | 87 | 1010.2 |
| 20260505085824 | 70 | 151 | 3.0 | 6.0 | 0.00 | 0.00 | 0.00 | 87 | 1010.2 |
| 20260505085322 | 70 | 165 | 6.0 | 11.0 | 0.00 | 0.00 | 0.00 | 86 | 1010.2 |
| 20260505084819 | 70 | 169 | 4.0 | 6.0 | 0.00 | 0.00 | 0.00 | 86 | 1010.2 |
| 20260505084318 | 70 | 182 | 3.0 | 5.0 | 0.00 | 0.00 | 0.00 | 86 | 1010.2 |
| 20260505083814 | 70 | 195 | 4.0 | 6.0 | 0.00 | 0.00 | 0.00 | 86 | 1010.5 |
| 20260505083312 | 70 | 182 | 2.0 | 4.0 | 0.00 | 0.00 | 0.00 | 86 | 1010.5 |
| 20260505082808 | 70 | 146 | 4.0 | 5.0 | 0.00 | 0.00 | 0.00 | 86 | 1010.5 |
| 20260505082305 | 70 | 169 | 3.0 | 4.0 | 0.00 | 0.00 | 0.00 | 85 | 1010.5 |
| 20260505081801 | 70 | 149 | 0.0 | 3.0 | 0.00 | 0.00 | 0.00 | 85 | 1010.5 |
| 20260505081258 | 70 | 187 | 3.0 | 4.0 | 0.00 | 0.00 | 0.00 | 85 | 1010.5 |
| 20260505080755 | 70 | 149 | 2.0 | 4.0 | 0.00 | 0.00 | 0.00 | 85 | 1010.5 |
| 20260505080250 | 70 | 143 | 3.0 | 4.0 | 0.00 | 0.00 | 0.00 | 85 | 1010.5 |
| 20260505075746 | 70 | 152 | 2.0 | 4.0 | 0.00 | 0.00 | 0.00 | 85 | 1010.5 |
| 20260505075244 | 70 | 159 | 2.0 | 4.0 | 0.00 | 0.00 | 0.00 | 84 | 1010.5 |
| 20260505074741 | 70 | 194 | 4.0 | 6.0 | 0.00 | 0.00 | 0.00 | 85 | 1010.5 |
| 20260505074238 | 70 | 158 | 3.0 | 4.0 | 0.00 | 0.00 | 0.00 | 84 | 1010.8 |
| 20260505073736 | 70 | 141 | 2.0 | 4.0 | 0.00 | 0.00 | 0.00 | 84 | 1010.8 |
| 20260505073233 | 70 | 177 | 2.0 | 2.0 | 0.00 | 0.00 | 0.00 | 84 | 1010.8 |
| 20260505072729 | 70 | 191 | 5.0 | 8.0 | 0.00 | 0.00 | 0.00 | 84 | 1010.8 |
| 20260505072225 | 70 | 164 | 5.0 | 9.0 | 0.00 | 0.00 | 0.00 | 84 | 1011.2 |
| 20260505071721 | 70 | 147 | 3.0 | 5.0 | 0.00 | 0.00 | 0.00 | 84 | 1011.2 |
| 20260505071219 | 70 | 172 | 2.0 | 5.0 | 0.00 | 0.00 | 0.00 | 84 | 1011.2 |
| 20260505070716 | 70 | 146 | 2.0 | 2.0 | 0.00 | 0.00 | 0.00 | 84 | 1011.2 |
| 20260505070212 | 70 | 152 | 3.0 | 5.0 | 0.00 | 0.00 | 0.00 | 83 | 1011.2 |
| 20260505065708 | 70 | 148 | 2.0 | 3.0 | 0.00 | 0.00 | 0.00 | 83 | 1011.2 |
| 20260505065205 | 70 | 153 | 3.0 | 7.0 | 0.00 | 0.00 | 0.00 | 83 | 1011.5 |
| 20260505064702 | 70 | 119 | 1.0 | 3.0 | 0.00 | 0.00 | 0.00 | 83 | 1011.5 |
| 20260505064200 | 70 | 170 | 3.0 | 8.0 | 0.00 | 0.00 | 0.00 | 83 | 1011.5 |
| 20260505063657 | 70 | 171 | 4.0 | 6.0 | 0.00 | 0.00 | 0.00 | 83 | 1011.5 |
| 20260505063153 | 70 | 202 | 3.0 | 6.0 | 0.00 | 0.00 | 0.00 | 82 | 1011.5 |
| 20260505062649 | 70 | 175 | 2.0 | 4.0 | 0.00 | 0.00 | 0.00 | 82 | 1011.5 |
| 20260505062147 | 70 | 183 | 4.0 | 6.0 | 0.00 | 0.00 | 0.00 | 82 | 1011.5 |
| 20260505061644 | 70 | 169 | 2.0 | 3.0 | 0.00 | 0.00 | 0.00 | 82 | 1011.5 |
| 20260505061142 | 70 | 147 | 2.0 | 3.0 | 0.00 | 0.00 | 0.00 | 82 | 1011.9 |
| 20260505060639 | 70 | 183 | 3.0 | 4.0 | 0.00 | 0.00 | 0.00 | 82 | 1011.9 |
| 20260505060136 | 70 | 134 | 4.0 | 6.0 | 0.00 | 0.00 | 0.00 | 82 | 1011.9 |
| 20260505055631 | 70 | 184 | 3.0 | 6.0 | 0.00 | 0.00 | 0.00 | 82 | 1011.9 |
| 20260505055128 | 70 | 155 | 2.0 | 2.0 | 0.00 | 0.00 | 0.00 | 81 | 1011.5 |
| 20260505054626 | 71 | 165 | 2.0 | 5.0 | 0.00 | 0.00 | 0.00 | 81 | 1011.5 |
| 20260505054124 | 71 | 157 | 3.0 | 4.0 | 0.00 | 0.00 | 0.00 | 81 | 1011.5 |
| 20260505053621 | 71 | 202 | 6.0 | 10.0 | 0.00 | 0.00 | 0.00 | 80 | 1011.5 |
| 20260505053117 | 71 | 206 | 3.0 | 7.0 | 0.00 | 0.00 | 0.00 | 80 | 1011.5 |
| 20260505052614 | 71 | 180 | 2.0 | 7.0 | 0.00 | 0.00 | 0.00 | 80 | 1011.9 |
| 20260505052112 | 71 | 175 | 2.0 | 4.0 | 0.00 | 0.00 | 0.00 | 80 | 1011.5 |
| 20260505051608 | 71 | 162 | 3.0 | 8.0 | 0.00 | 0.00 | 0.00 | 80 | 1011.9 |
| 20260505051107 | 71 | 159 | 4.0 | 6.0 | 0.00 | 0.00 | 0.00 | 80 | 1011.9 |
| 20260505050604 | 71 | 176 | 3.0 | 4.0 | 0.00 | 0.00 | 0.00 | 79 | 1011.9 |
| 20260505041532 | 72 | 195 | 2.0 | 4.0 | 0.00 | 0.00 | 0.00 | 77 | 1011.9 |
| 20260505041029 | 72 | 173 | 5.0 | 9.0 | 0.00 | 0.00 | 0.00 | 77 | 1011.9 |
| 20260505040526 | 72 | 157 | 4.0 | 7.0 | 0.00 | 0.00 | 0.00 | 77 | 1011.9 |
| 20260505040024 | 72 | 146 | 5.0 | 8.0 | 0.00 | 0.00 | 0.00 | 77 | 1011.9 |
| 20260505035519 | 72 | 162 | 4.0 | 7.0 | 0.00 | 0.00 | 0.00 | 76 | 1011.9 |
| 20260505035017 | 72 | 177 | 5.0 | 9.0 | 0.00 | 0.00 | 0.00 | 76 | 1011.9 |
| 20260505034513 | 73 | 178 | 6.0 | 13.0 | 0.00 | 0.00 | 0.00 | 76 | 1011.9 |
| 20260505034010 | 73 | 182 | 6.0 | 8.0 | 0.00 | 0.00 | 0.00 | 75 | 1011.9 |
| 20260505033507 | 73 | 208 | 2.0 | 6.0 | 0.00 | 0.00 | 0.00 | 76 | 1011.9 |
| 20260505033005 | 73 | 187 | 5.0 | 8.0 | 0.00 | 0.00 | 0.00 | 75 | 1011.9 |
| 20260505032502 | 73 | 177 | 5.0 | 9.0 | 0.00 | 0.00 | 0.00 | 75 | 1011.9 |
| 20260505031958 | 73 | 199 | 4.0 | 7.0 | 0.00 | 0.00 | 0.00 | 74 | 1011.9 |
| 20260505031455 | 73 | 180 | 4.0 | 7.0 | 0.00 | 0.00 | 0.00 | 74 | 1012.2 |
| 20260505030952 | 74 | 198 | 6.0 | 10.0 | 0.00 | 0.00 | 0.00 | 74 | 1011.9 |
| 20260505030448 | 74 | 161 | 4.0 | 7.0 | 0.00 | 0.00 | 0.00 | 73 | 1011.9 |
| 20260505025944 | 74 | 153 | 5.0 | 10.0 | 0.00 | 0.00 | 0.00 | 74 | 1011.9 |
| 20260505025441 | 74 | 182 | 5.0 | 7.0 | 0.00 | 0.00 | 0.00 | 73 | 1011.9 |
| 20260505024940 | 74 | 142 | 3.0 | 5.0 | 0.00 | 0.00 | 0.00 | 73 | 1011.9 |
| 20260505024437 | 74 | 191 | 6.0 | 12.0 | 0.00 | 0.00 | 0.00 | 73 | 1011.9 |
| 20260505023934 | 74 | 149 | 4.0 | 6.0 | 0.00 | 0.00 | 0.00 | 73 | 1011.5 |
| 20260505023431 | 74 | 168 | 5.0 | 7.0 | 0.00 | 0.00 | 0.00 | 74 | 1011.9 |
| 20260505022928 | 74 | 172 | 3.0 | 5.0 | 0.00 | 0.00 | 0.00 | 73 | 1011.9 |
| 20260505022426 | 74 | 210 | 5.0 | 6.0 | 0.00 | 0.00 | 0.00 | 73 | 1011.5 |
| 20260505021922 | 74 | 171 | 5.0 | 8.0 | 0.00 | 0.00 | 0.00 | 73 | 1011.5 |
| 20260505021419 | 74 | 188 | 3.0 | 9.0 | 0.00 | 0.00 | 0.00 | 73 | 1011.9 |
| 20260505020915 | 74 | 151 | 4.0 | 9.0 | 0.00 | 0.00 | 0.00 | 73 | 1011.9 |
| 20260505020410 | 74 | 175 | 3.0 | 5.0 | 0.00 | 0.00 | 0.00 | 72 | 1011.9 |
| 20260505015908 | 74 | 126 | 3.0 | 6.0 | 0.00 | 0.00 | 0.00 | 72 | 1011.9 |
| 20260505015405 | 75 | 185 | 4.0 | 8.0 | 0.00 | 0.00 | 0.00 | 72 | 1011.5 |
| 20260505014902 | 75 | 148 | 3.0 | 5.0 | 0.00 | 0.00 | 0.00 | 72 | 1011.5 |
| 20260505014359 | 75 | 188 | 4.0 | 7.0 | 0.00 | 0.00 | 0.00 | 72 | 1011.5 |
| 20260505013855 | 75 | 170 | 4.0 | 6.0 | 0.00 | 0.00 | 0.00 | 72 | 1011.5 |
| 20260505013352 | 75 | 131 | 1.0 | 2.0 | 0.00 | 0.00 | 0.00 | 72 | 1011.5 |
| 20260505012851 | 75 | 182 | 2.0 | 6.0 | 0.00 | 0.00 | 0.00 | 71 | 1011.2 |
| 20260505012349 | 75 | 157 | 3.0 | 4.0 | 0.00 | 0.00 | 0.00 | 71 | 1011.2 |
| 20260505011844 | 75 | 191 | 2.0 | 5.0 | 0.00 | 0.00 | 0.00 | 70 | 1011.2 |
| 20260505011341 | 76 | 169 | 2.0 | 5.0 | 0.00 | 0.00 | 0.00 | 70 | 1011.2 |
| 20260505010837 | 76 | 140 | 4.0 | 6.0 | 0.00 | 0.00 | 0.00 | 69 | 1011.2 |
| 20260505010333 | 76 | 196 | 5.0 | 7.0 | 0.00 | 0.00 | 0.00 | 70 | 1011.2 |
| 20260505005830 | 76 | 184 | 5.0 | 8.0 | 0.00 | 0.00 | 0.00 | 69 | 1011.2 |
| 20260505005326 | 76 | 170 | 4.0 | 7.0 | 0.00 | 0.00 | 0.00 | 69 | 1011.2 |
| 20260505004824 | 76 | 156 | 2.0 | 3.0 | 0.00 | 0.00 | 0.00 | 68 | 1011.2 |
| 20260505004320 | 76 | 158 | 4.0 | 8.0 | 0.00 | 0.00 | 0.00 | 68 | 1011.5 |
| 20260505003818 | 76 | 172 | 3.0 | 4.0 | 0.00 | 0.00 | 0.00 | 68 | 1011.2 |
| 20260505003315 | 77 | 208 | 4.0 | 9.0 | 0.00 | 0.00 | 0.00 | 67 | 1011.2 |
| 20260505002811 | 77 | 150 | 4.0 | 7.0 | 0.00 | 0.00 | 0.00 | 67 | 1011.2 |
| 20260505002308 | 77 | 152 | 3.0 | 6.0 | 0.00 | 0.00 | 0.00 | 66 | 1011.2 |
| 20260505001806 | 77 | 158 | 4.0 | 7.0 | 0.00 | 0.00 | 0.00 | 66 | 1011.2 |
| 20260505001303 | 77 | 182 | 2.0 | 6.0 | 0.00 | 0.00 | 0.00 | 65 | 1011.2 |
| 20260505000800 | 77 | 170 | 8.0 | 12.0 | 0.00 | 0.00 | 0.00 | 66 | 1011.2 |
| 20260505000258 | 77 | 179 | 4.0 | 8.0 | 0.00 | 0.00 | 0.00 | 65 | 1011.2 |
| 20260504235754 | 77 | 183 | 3.0 | 6.0 | 0.00 | 0.00 | 0.00 | 65 | 1011.2 |
| 20260504235250 | 77 | 163 | 3.0 | 5.0 | 0.00 | 0.00 | 0.00 | 65 | 1011.2 |
| 20260504234748 | 78 | 162 | 3.0 | 6.0 | 0.00 | 0.00 | 0.00 | 64 | 1011.2 |
| 20260504234245 | 78 | 177 | 4.0 | 9.0 | 0.00 | 0.00 | 0.00 | 64 | 1011.2 |
| 20260504233741 | 78 | 187 | 4.0 | 7.0 | 0.00 | 0.00 | 0.00 | 63 | 1011.2 |
| 20260504233237 | 78 | 188 | 3.0 | 6.0 | 0.00 | 0.00 | 0.00 | 62 | 1011.2 |
| 20260504232735 | 78 | 167 | 3.0 | 6.0 | 0.00 | 0.00 | 0.00 | 62 | 1011.2 |
| 20260504232231 | 79 | 199 | 3.0 | 7.0 | 0.00 | 0.00 | 0.00 | 62 | 1011.2 |
| 20260504231728 | 79 | 166 | 4.0 | 7.0 | 0.00 | 0.00 | 0.00 | 62 | 1011.5 |
| 20260504231224 | 79 | 167 | 6.0 | 11.0 | 0.00 | 0.00 | 0.00 | 61 | 1011.5 |
| 20260504230721 | 79 | 182 | 6.0 | 11.0 | 0.00 | 0.00 | 0.00 | 61 | 1011.5 |
| 20260504230220 | 79 | 171 | 4.0 | 7.0 | 0.00 | 0.00 | 0.00 | 60 | 1011.5 |
| 20260504225718 | 80 | 182 | 6.0 | 9.0 | 0.00 | 0.00 | 0.00 | 59 | 1011.5 |
| 20260504225213 | 80 | 204 | 6.0 | 9.0 | 0.00 | 0.00 | 0.00 | 60 | 1011.9 |
| 20260504224711 | 79 | 188 | 3.0 | 5.0 | 0.00 | 0.00 | 0.00 | 61 | 1011.5 |
| 20260504224209 | 79 | 169 | 4.0 | 7.0 | 0.00 | 0.00 | 0.00 | 60 | 1011.5 |
| 20260504223704 | 80 | 159 | 5.0 | 9.0 | 0.00 | 0.00 | 0.00 | 59 | 1011.9 |
| 20260504223200 | 80 | 163 | 3.0 | 6.0 | 0.00 | 0.00 | 0.00 | 60 | 1011.9 |
| 20260504222658 | 79 | 160 | 6.0 | 8.0 | 0.00 | 0.00 | 0.00 | 60 | 1011.9 |
| 20260504222154 | 79 | 140 | 4.0 | 8.0 | 0.00 | 0.00 | 0.00 | 61 | 1011.9 |
| 20260504221651 | 79 | 182 | 4.0 | 7.0 | 0.00 | 0.00 | 0.00 | 60 | 1011.9 |
| 20260504221148 | 80 | 184 | 4.0 | 7.0 | 0.00 | 0.00 | 0.00 | 59 | 1011.9 |
| 20260504220645 | 80 | 141 | 4.0 | 7.0 | 0.00 | 0.00 | 0.00 | 59 | 1011.9 |
| 20260504220143 | 80 | 131 | 2.0 | 5.0 | 0.00 | 0.00 | 0.00 | 59 | 1012.2 |
| 20260504215638 | 80 | 164 | 4.0 | 7.0 | 0.00 | 0.00 | 0.00 | 59 | 1012.2 |
| 20260504215136 | 80 | 193 | 4.0 | 5.0 | 0.00 | 0.00 | 0.00 | 58 | 1012.2 |
| 20260504214632 | 81 | 61 | 2.0 | 3.0 | 0.00 | 0.00 | 0.00 | 58 | 1012.2 |
| 20260504214128 | 80 | 165 | 4.0 | 8.0 | 0.00 | 0.00 | 0.00 | 58 | 1012.2 |
| 20260504213625 | 81 | 185 | 5.0 | 9.0 | 0.00 | 0.00 | 0.00 | 56 | 1012.2 |
| 20260504213122 | 82 | 177 | 6.0 | 8.0 | 0.00 | 0.00 | 0.00 | 56 | 1012.2 |
| 20260504212618 | 81 | 148 | 5.0 | 8.0 | 0.00 | 0.00 | 0.00 | 58 | 1012.5 |
| 20260504212115 | 80 | 166 | 5.0 | 8.0 | 0.00 | 0.00 | 0.00 | 59 | 1012.5 |
| 20260504211612 | 80 | 188 | 5.0 | 8.0 | 0.00 | 0.00 | 0.00 | 58 | 1012.9 |
| 20260504211109 | 80 | 182 | 5.0 | 7.0 | 0.00 | 0.00 | 0.00 | 59 | 1012.9 |
| 20260504210607 | 80 | 149 | 4.0 | 9.0 | 0.00 | 0.00 | 0.00 | 58 | 1012.9 |
| 20260504205601 | 81 | 188 | 4.0 | 6.0 | 0.00 | 0.00 | 0.00 | 55 | 1012.9 |
| 20260504205058 | 82 | 191 | 4.0 | 9.0 | 0.00 | 0.00 | 0.00 | 55 | 1012.9 |
| 20260504204556 | 81 | 352 | 2.0 | 4.0 | 0.00 | 0.00 | 0.00 | 56 | 1012.9 |
| 20260504204055 | 81 | 182 | 6.0 | 9.0 | 0.00 | 0.00 | 0.00 | 56 | 1013.2 |
| 20260504203552 | 80 | 182 | 4.0 | 11.0 | 0.00 | 0.00 | 0.00 | 56 | 1013.2 |
| 20260504203050 | 80 | 136 | 2.0 | 5.0 | 0.00 | 0.00 | 0.00 | 57 | 1013.5 |
| 20260504202545 | 80 | 184 | 3.0 | 6.0 | 0.00 | 0.00 | 0.00 | 57 | 1013.2 |
| 20260504202042 | 81 | 161 | 3.0 | 6.0 | 0.00 | 0.00 | 0.00 | 55 | 1013.5 |
| 20260504201539 | 81 | 255 | 2.0 | 4.0 | 0.00 | 0.00 | 0.00 | 55 | 1013.5 |
| 20260504201037 | 81 | 182 | 5.0 | 9.0 | 0.00 | 0.00 | 0.00 | 54 | 1013.9 |
| 20260504200533 | 80 | 204 | 4.0 | 7.0 | 0.00 | 0.00 | 0.00 | 55 | 1013.5 |
| 20260504200030 | 79 | 156 | 6.0 | 10.0 | 0.00 | 0.00 | 0.00 | 55 | 1013.5 |
| 20260504195526 | 80 | 180 | 4.0 | 8.0 | 0.00 | 0.00 | 0.00 | 56 | 1013.9 |
| 20260504195023 | 81 | 142 | 4.0 | 7.0 | 0.00 | 0.00 | 0.00 | 54 | 1013.9 |
| 20260504194519 | 79 | 175 | 5.0 | 8.0 | 0.00 | 0.00 | 0.00 | 56 | 1013.9 |
| 20260504194015 | 79 | 210 | 2.0 | 4.0 | 0.00 | 0.00 | 0.00 | 57 | 1014.2 |
| 20260504193512 | 79 | 168 | 4.0 | 9.0 | 0.00 | 0.00 | 0.00 | 57 | 1014.2 |
| 20260504193011 | 80 | 150 | 4.0 | 9.0 | 0.00 | 0.00 | 0.00 | 55 | 1014.6 |
| 20260504192508 | 81 | 143 | 7.0 | 10.0 | 0.00 | 0.00 | 0.00 | 54 | 1014.2 |
| 20260504192007 | 80 | 188 | 4.0 | 8.0 | 0.00 | 0.00 | 0.00 | 55 | 1014.2 |
| 20260504191504 | 79 | 204 | 6.0 | 11.0 | 0.00 | 0.00 | 0.00 | 56 | 1014.6 |
| 20260504190959 | 79 | 180 | 5.0 | 7.0 | 0.00 | 0.00 | 0.00 | 55 | 1014.6 |
| 20260504190455 | 80 | 144 | 5.0 | 6.0 | 0.00 | 0.00 | 0.00 | 54 | 1014.6 |
| 20260504185952 | 80 | 162 | 4.0 | 7.0 | 0.00 | 0.00 | 0.00 | 54 | 1014.6 |
| 20260504185449 | 80 | 156 | 4.0 | 7.0 | 0.00 | 0.00 | 0.00 | 56 | 1014.9 |
| 20260504184945 | 79 | 167 | 3.0 | 6.0 | 0.00 | 0.00 | 0.00 | 57 | 1014.9 |
| 20260504184441 | 78 | 178 | 4.0 | 6.0 | 0.00 | 0.00 | 0.00 | 57 | 1015.2 |
| 20260504183937 | 78 | 170 | 5.0 | 6.0 | 0.00 | 0.00 | 0.00 | 56 | 1015.2 |
| 20260504183434 | 79 | 180 | 5.0 | 8.0 | 0.00 | 0.00 | 0.00 | 55 | 1014.9 |
| 20260504182932 | 79 | 123 | 4.0 | 6.0 | 0.00 | 0.00 | 0.00 | 55 | 1014.9 |
| 20260504182429 | 79 | 157 | 3.0 | 4.0 | 0.00 | 0.00 | 0.00 | 54 | 1015.2 |
| 20260504181926 | 78 | 195 | 5.0 | 11.0 | 0.00 | 0.00 | 0.00 | 55 | 1015.2 |
| 20260504181423 | 78 | 231 | 5.0 | 9.0 | 0.00 | 0.00 | 0.00 | 57 | 1015.2 |
| 20260504180922 | 78 | 148 | 6.0 | 10.0 | 0.00 | 0.00 | 0.00 | 57 | 1015.2 |
| 20260504180420 | 79 | 163 | 6.0 | 11.0 | 0.00 | 0.00 | 0.00 | 56 | 1015.2 |
| 20260504175918 | 79 | 185 | 5.0 | 8.0 | 0.00 | 0.00 | 0.00 | 55 | 1015.2 |
| 20260504175415 | 79 | 205 | 5.0 | 8.0 | 0.00 | 0.00 | 0.00 | 54 | 1015.2 |
| 20260504174913 | 78 | 155 | 2.0 | 5.0 | 0.00 | 0.00 | 0.00 | 55 | 1015.2 |
| 20260504174410 | 78 | 199 | 5.0 | 8.0 | 0.00 | 0.00 | 0.00 | 54 | 1015.2 |
| 20260504173907 | 78 | 157 | 6.0 | 9.0 | 0.00 | 0.00 | 0.00 | 55 | 1015.2 |
| 20260504173403 | 78 | 188 | 8.0 | 14.0 | 0.00 | 0.00 | 0.00 | 55 | 1015.2 |
| 20260504172901 | 78 | 220 | 4.0 | 8.0 | 0.00 | 0.00 | 0.00 | 54 | 1015.6 |
| 20260504172357 | 78 | 199 | 10.0 | 16.0 | 0.00 | 0.00 | 0.00 | 54 | 1015.6 |
| 20260504171853 | 78 | 170 | 8.0 | 10.0 | 0.00 | 0.00 | 0.00 | 54 | 1015.6 |
| 20260504171350 | 78 | 193 | 4.0 | 8.0 | 0.00 | 0.00 | 0.00 | 56 | 1015.9 |
| 20260504170847 | 77 | 156 | 2.0 | 5.0 | 0.00 | 0.00 | 0.00 | 57 | 1016.3 |
| 20260504170344 | 77 | 178 | 6.0 | 10.0 | 0.00 | 0.00 | 0.00 | 56 | 1016.3 |
| 20260504160303 | 75 | 182 | 6.0 | 11.0 | 0.00 | 0.00 | 0.00 | 59 | 1016.9 |